DELTA 1 DEB, 10829

Orbit data source: Space-Track

DELTA 1 DEB, 10829 is space debris in SSO originally from a launch on Thu, 29 Jul 1976 UTC launched from the Air Force Western Test Range (AFWTR). Debris objects in space refer to the collection of defunct objects orbiting the Earth. Examples of debris include non-operational satellites, rocket bodies, and fragments generated from explosions, collisions, or faulty payload assembly.

Loading next visibility...
Identifier
10829, 1976-077BZ
Orbit
SSO
Country
Flag of USUS
Related business
Manufacturer
Unknown
Mission
Spacecraft
Bus & Motor
Unknown
Mass
Unknown
Launch date (UTC)
1976-07-29 (50 years ago)
Launch vehicle
Unknown
Launch site
Air Force Western Test Range (AFWTR)
Object type
Payload
Rocket body
Debris
Shape & HBR
Unknown shape, 0.1 m
Radar Cross Section
Medium (>0.1 m² and <1 m²)

Expand to show TLE details & history
Last TLE update: 3 days ago

TLE from 3 days ago
0 DELTA 1 DEB
1 10829U 76077BZ  26170.35184301  .00000167  00000-0  16312-2 0  9997
2 10829 101.7775 127.9301 0041777 103.8021  50.6985 12.36739144249406
Epoch: 2026-06-19T08:26Z
TLE epoch observation values (Epoch: 2026-06-19T08:26:39.236Z)
Latitude
24.58999°
Longitude
-80.86709°
Altitude
1,502.293 km
Speed
7.125 km/s
True Right ascension
20h 53m 30s
True Declination
24° 28' 21"
Sunlit
Object was in daylight at epoch
Visualization orbit readout
Latitude
Unknown
Longitude
Unknown
Altitude
Unknown
Speed
Unknown
Apparent Right ascension
Unknown
Apparent Declination
Unknown
Sunlit
N/A
Visualization observer readout
Local Sidereal Time
23:21:05
Azimuth
Unknown
Elevation
Unknown
Doppler factor
Unknown
Orbital elements
Apogee altitude
1,551.01 km
Perigee altitude
1,485.035 km
Semi-major axis
7,896.159 km
Eccentricity
0.00418
Inclination
101.7775°
RAAN
127.9301°
Arg. of periapsis
103.8021°
True anomaly
51.07018°
Mean anomaly
50.6985°
Eccentric anomaly
50.88422°
Mean motion
3.09328 °/min
Orbital period
116.38 mins
BSTAR
0.0016312
Loading maneuver chart data...
Computing Atmospheric mass density...
Loading historical data...
Loading historical data...
Loading historical data...
Loading historical data...
Loading historical data...
Loading historical data...
Loading historical data...

Documentation

Showing up to 5 results
|